Ames, IA

9:50 AM CDT on October 20, 2017 (GMT -0500)
Ames Municipal

Weather History for KAMW - October, 2012

Change the Weather History Date:

Monday, October 29, 2012

  Actual Average Record
Temperature  
Mean Temperature 39 °F 45 °F  
Max Temperature 50 °F 56 °F 80 °F (1999)
Min Temperature 27 °F 35 °F 20 °F (2011)
Degree Days  
Heating Degree Days 26 20  
Month to date heating degree days 440 411  
Since 1 July heating degree days 601 555  
Cooling Degree Days 0 0  
Month to date cooling degree days 4 10  
Year to date cooling degree days 1067 752  
Moisture  
Dew Point 27 °F    
Average Humidity 65    
Maximum Humidity 85    
Minimum Humidity 45    
Precipitation  
Precipitation 0.00 in 0.08 in 0.97 in (1982)
Month to date precipitation 2.35 2.38  
Sea Level Pressure  
Sea Level Pressure 30.29 in    
Wind  
Wind Speed 5 mph (SE)    
Max Wind Speed 17 mph    
Max Gust Speed 23 mph    
Visibility 10 miles    
Events      
T = Trace of Precipitation, MM = Missing Value Source: NWS Daily Summary

Daily Weather History Graph

Daily Weather History Graph

Search for Another Location

Airport or City:

Trip Planner

Search our weather history database for the weather conditions in past years. The results will help you decide how hot, cold, wet, or windy it might be!

Date:

Astronomy

Oct. 29, 2012 Rise Set
Actual Time 7:44 AM CDT 6:11 PM CDT
Civil Twilight 7:15 AM CDT 6:40 PM CDT
Nautical Twilight 6:42 AM CDT 7:13 PM CDT
Astronomical Twilight 6:09 AM CDT 7:45 PM CDT
Moon 6:03 PM CDT (10/29) 7:35 AM CDT (10/29)
Length of Visible Light 11h 25m
Length of Day
10h 27m
Full, 100% of the Moon is Illuminated
Oct 29
Full
Oct 29
Full
Nov 6
Last Quarter
Nov 13
New
Nov 20
First Quarter

Hourly Weather History & Observations

Time (CDT) Temp. Windchill Dew Point Humidity Pressure Visibility Wind Dir Wind Speed Gust Speed Precip Events Conditions
12:53 AM 28.9 °F - 23.0 °F 78% 30.34 in 10.0 mi Calm Calm - N/A   Clear
1:53 AM 27.0 °F - 21.9 °F 81% 30.33 in 10.0 mi Calm Calm - N/A   Clear
2:53 AM 28.0 °F - 23.0 °F 81% 30.33 in 10.0 mi Calm Calm - N/A   Partly Cloudy
3:53 AM 28.9 °F - 24.1 °F 82% 30.33 in 10.0 mi Calm Calm - N/A   Overcast
4:53 AM 30.0 °F - 24.1 °F 79% 30.32 in 10.0 mi Calm Calm - N/A   Mostly Cloudy
5:53 AM 30.0 °F - 25.0 °F 82% 30.32 in 10.0 mi Calm Calm - N/A   Partly Cloudy
6:53 AM 32.0 °F - 26.1 °F 79% 30.33 in 10.0 mi Calm Calm - N/A   Overcast
7:53 AM 33.1 °F 27.7 °F 27.0 °F 78% 30.33 in 10.0 mi SE 5.8 mph - N/A   Overcast
8:53 AM 34.0 °F 28.0 °F 28.0 °F 79% 30.34 in 10.0 mi SE 6.9 mph - N/A   Overcast
9:53 AM 36.0 °F 31.1 °F 28.9 °F 76% 30.34 in 10.0 mi SE 5.8 mph - N/A   Overcast
10:53 AM 37.9 °F 30.9 °F 30.0 °F 73% 30.34 in 10.0 mi SE 10.4 mph - N/A   Overcast
11:53 AM 41.0 °F 35.8 °F 30.9 °F 67% 30.34 in 10.0 mi SE 8.1 mph - N/A   Overcast
12:53 PM 46.9 °F - 33.1 °F 59% 30.30 in 10.0 mi SE 11.5 mph - N/A   Overcast
1:53 PM 46.9 °F - 30.9 °F 54% 30.28 in 10.0 mi SSE 10.4 mph - N/A   Mostly Cloudy
2:53 PM 48.9 °F - 30.0 °F 48% 30.25 in 10.0 mi SSE 15.0 mph - N/A   Scattered Clouds
3:53 PM 48.9 °F - 30.0 °F 48% 30.23 in 10.0 mi SSE 11.5 mph 19.6 mph N/A   Partly Cloudy
4:53 PM 48.9 °F - 28.9 °F 46% 30.22 in 10.0 mi SSE 11.5 mph - N/A   Clear
5:53 PM 46.0 °F 41.9 °F 27.0 °F 47% 30.22 in 10.0 mi ESE 8.1 mph - N/A   Clear
6:53 PM 41.0 °F 38.0 °F 27.0 °F 57% 30.24 in 10.0 mi SE 4.6 mph - N/A   Clear
7:53 PM 37.9 °F - 27.0 °F 65% 30.24 in 10.0 mi Calm Calm - N/A   Clear
8:53 PM 34.0 °F 31.0 °F 27.0 °F 75% 30.24 in 10.0 mi East 3.5 mph - N/A   Clear
9:53 PM 35.1 °F - 27.0 °F 72% 30.24 in 10.0 mi Calm Calm - N/A   Clear
10:53 PM 32.0 °F - 26.1 °F 79% 30.23 in 10.0 mi Calm Calm - N/A   Clear
11:53 PM 28.9 °F - 25.0 °F 85% 30.21 in 10.0 mi Calm Calm - N/A   Clear